Theta_e
340 336 335 337 338 338 339 339 339 338 338 337 337 335 334 333 330 332 330 328 331 333 330 328 328 328 328 327 326 327 326 326 327 326 329 331 331 331 331 329 328 329 331
339 337 336 336 338 338 338 338 337 336 336 335 335 335 334 334 330 330 331 329 329 329 328 328 329 328 327 326 326 325 325 326 326 326 327 328 329 330 330 327 329 331 332
340 336 337 337 337 338 338 337 337 336 335 334 333 332 333 333 330 333 332 329 327 328 328 328 327 327 327 326 326 326 324 325 327 327 328 327 329 330 330 331 331 331 331
340 339 337 336 337 336 335 334 334 334 333 332 331 330 331 331 329 330 331 328 327 328 328 327 328 327 325 326 325 325 325 326 327 328 327 328 329 329 331 331 328 327 327
339 339 337 336 335 332 333 334 334 332 331 331 330 329 329 330 329 328 328 327 327 328 327 327 327 325 326 326 325 326 326 326 328 329 329 330 330 331 330 327 326 324 324
339 338 336 335 334 334 334 334 332 330 330 329 329 328 329 328 327 328 328 326 327 327 327 326 326 325 326 324 324 324 325 327 328 329 329 329 330 330 328 326 325 323 323
338 339 336 334 334 334 334 334 331 330 329 328 328 327 328 328 327 328 328 326 326 326 327 326 326 325 323 322 322 322 324 325 327 330 329 329 329 328 325 324 322 321 321
338 338 336 334 333 333 334 334 331 329 328 327 327 327 327 327 327 327 328 326 325 326 326 325 324 320 318 318 317 321 324 327 326 328 328 328 327 326 324 322 321 319 318
337 337 334 334 334 333 333 333 331 330 328 327 326 326 326 326 326 326 326 326 325 325 326 324 319 318 318 318 317 323 325 325 325 327 327 328 326 325 323 321 319 317 316
336 336 335 334 334 333 333 333 331 331 329 328 325 326 325 325 326 325 325 325 325 324 323 320 319 319 319 318 318 322 323 324 324 322 323 326 325 323 321 319 317 316 316
335 335 335 334 333 333 333 332 330 331 330 328 325 325 324 324 324 324 324 325 324 324 322 319 319 319 319 318 319 322 322 322 322 323 321 324 324 322 320 317 316 315 315
335 334 334 335 334 332 331 331 330 331 328 327 325 324 325 324 323 324 325 325 323 321 319 320 320 319 322 322 321 323 322 322 321 321 319 322 323 321 319 316 316 314 314
335 334 333 333 332 333 332 332 331 330 328 327 326 323 325 325 324 324 324 324 323 320 319 320 320 320 323 323 322 323 321 321 321 321 319 318 322 320 318 316 315 314 313
335 334 333 332 331 332 331 330 331 330 329 327 326 324 325 325 325 324 323 322 322 320 322 322 322 323 323 323 323 323 322 322 321 320 319 317 317 318 318 317 316 314 312
335 335 332 331 331 331 330 329 330 330 329 327 326 326 326 325 324 324 324 321 323 322 323 323 323 323 323 323 322 322 322 322 320 319 319 317 317 318 318 317 316 314 313
335 335 334 330 330 331 330 329 329 328 328 328 327 327 326 326 325 324 324 323 323 323 322 323 323 323 323 323 323 322 322 322 321 319 318 319 318 317 317 317 317 315 314
334 334 334 331 330 330 330 329 328 328 328 327 328 327 325 325 325 323 323 323 322 322 322 322 323 322 323 323 323 323 322 322 322 321 318 317 318 317 316 315 317 316 315
334 333 334 333 331 330 330 329 328 327 327 327 327 326 326 324 324 322 321 321 321 321 321 322 322 322 322 323 323 323 322 322 322 322 320 318 317 316 317 316 315 314 315
333 332 334 333 332 331 330 329 328 328 326 326 325 325 325 325 324 323 320 320 320 321 321 321 322 322 322 322 323 323 322 322 321 322 321 320 319 318 317 316 316 316 314
333 332 333 333 332 332 331 330 329 328 327 326 325 324 324 324 324 323 321 319 319 320 320 320 321 322 322 323 323 322 322 322 321 321 322 322 320 319 318 317 316 316 315
333 332 332 333 333 332 331 330 329 328 327 326 325 325 324 323 322 322 322 321 320 319 319 320 320 322 323 323 323 322 322 321 322 322 321 322 321 319 319 318 317 316 315
332 333 333 333 333 332 331 331 330 329 328 327 326 325 325 323 322 321 322 324 324 320 321 322 322 323 323 324 323 322 321 321 321 321 321 322 321 320 319 318 318 317 315
331 332 332 332 333 332 331 332 331 330 329 328 327 326 325 324 323 322 323 323 324 324 322 322 323 323 324 324 324 323 322 320 321 323 322 322 321 320 320 318 318 318 316
331 332 332 332 332 333 332 332 331 330 330 329 328 327 326 325 324 323 323 324 324 325 324 323 322 323 324 324 324 323 322 323 320 318 321 321 320 320 320 320 319 318 317
328 331 332 333 332 332 332 332 331 330 330 330 328 327 326 325 325 324 323 323 324 325 325 324 324 323 324 323 324 323 322 322 321 322 322 320 320 320 319 319 319 318 317
324 329 331 332 333 332 332 332 331 331 330 330 329 328 327 326 326 325 324 323 323 323 324 325 325 325 324 324 324 324 323 321 320 320 320 319 319 319 320 320 320 320 319
Wind_Speed
11 15 14 14 14 15 18 16 15 15 14 15 13 14 14 15 14 16 16 20 17 18 17 19 18 19 20 20 19 19 19 21 22 19 17 17 17 17 18 18 17 17 14
15 16 16 15 16 16 16 14 14 14 11 10 11 12 14 15 14 15 15 17 17 17 18 18 18 19 19 18 18 18 17 17 17 17 18 16 16 17 17 16 16 16 21
18 17 17 16 16 15 16 14 12 11 9 9 7 9 12 14 14 13 15 17 17 17 17 17 17 18 18 18 16 16 17 17 18 16 14 16 17 16 17 22 23 24 24
15 16 18 16 15 14 12 12 11 12 11 11 9 10 12 14 13 12 15 14 15 16 17 16 16 17 16 15 15 17 16 16 15 13 12 12 12 12 18 20 19 18 19
17 16 14 15 14 14 13 12 11 11 12 12 11 11 12 11 12 13 12 12 14 16 16 15 15 14 14 13 16 15 14 14 15 13 9 9 12 17 16 15 14 14 15
17 13 13 16 15 13 13 12 11 11 13 12 11 11 12 12 12 12 12 10 14 15 14 14 13 12 12 13 13 14 14 12 11 12 13 15 18 18 15 14 13 12 11
12 13 15 15 14 13 13 13 11 13 14 13 12 11 12 13 12 12 12 10 13 13 13 12 12 11 11 11 11 12 15 15 10 14 12 13 16 15 14 13 12 12 12
14 12 15 14 14 14 13 13 12 12 14 13 12 11 11 13 12 13 11 8 13 12 12 11 10 10 10 10 10 12 11 14 8 12 12 13 12 13 12 11 12 12 13
15 15 12 14 14 14 14 14 13 13 14 10 13 12 12 13 12 12 12 11 10 11 10 10 9 10 9 9 11 13 14 11 9 11 11 11 11 11 10 10 11 12 13
18 12 12 13 13 14 14 15 14 14 14 11 12 15 14 14 13 13 12 11 11 10 10 9 8 8 7 8 10 12 11 12 7 4 3 8 8 9 10 11 11 12 12
15 15 16 17 13 12 14 15 13 14 14 12 12 14 13 13 13 13 12 12 13 12 10 9 8 7 6 6 8 9 7 7 7 3 4 7 7 8 8 9 9 10 10
18 17 16 15 18 16 14 15 15 17 14 13 13 13 15 10 14 13 15 14 12 12 11 9 7 6 5 3 4 6 4 5 3 3 3 5 5 7 6 6 7 8 8
21 19 18 18 19 19 18 17 17 19 17 13 12 14 12 15 15 15 16 17 14 12 10 8 7 7 2 3 3 2 3 3 3 1 3 1 4 3 2 3 4 5 6
23 21 21 20 20 20 19 16 20 19 18 18 16 16 16 16 17 16 15 17 14 13 9 6 5 3 8 7 7 5 4 3 3 0 2 1 0 1 0 1 2 3 2
21 22 22 23 23 22 20 19 20 21 21 20 20 19 19 18 16 17 15 14 14 12 11 12 10 10 8 7 6 6 5 5 4 3 3 2 3 3 2 2 2 3 2
24 26 25 26 25 24 25 22 22 22 24 20 21 24 22 20 19 20 18 18 17 15 14 13 12 10 10 9 8 8 7 6 6 8 7 5 6 7 6 6 5 4 4
28 24 28 28 27 27 26 25 24 24 22 25 23 24 23 23 22 22 21 20 19 17 16 15 13 12 11 11 10 10 9 10 9 11 10 9 10 8 10 10 9 7 7
27 30 26 30 30 29 28 28 27 25 27 25 26 25 24 25 22 21 21 20 19 18 19 17 16 15 14 13 12 11 10 10 11 13 14 13 13 13 12 12 12 12 11
31 32 29 30 31 31 29 29 29 27 27 27 27 26 27 27 26 22 22 21 20 20 20 19 17 16 15 15 14 11 11 13 12 14 17 16 16 16 15 15 15 16 16
32 32 30 33 34 33 32 29 29 28 29 29 28 28 28 28 28 27 24 23 22 23 22 21 20 19 18 16 14 13 13 14 15 17 19 20 19 19 18 17 20 22 22
34 34 34 33 36 36 33 33 31 33 33 31 30 30 29 29 30 30 28 25 24 26 26 23 22 21 20 18 12 14 16 17 20 23 22 24 24 23 21 21 22 24 25
36 38 34 37 36 40 36 34 33 31 31 31 32 30 31 32 31 33 33 29 27 28 26 25 24 23 22 19 11 10 3 8 21 26 25 27 24 21 22 24 24 24 26
34 36 39 40 38 40 39 32 29 27 26 29 32 34 36 36 35 34 35 34 31 30 30 29 28 27 24 22 24 11 3 4 3 11 21 22 21 21 23 24 26 26 25
35 39 41 39 39 41 40 36 37 34 32 35 34 34 38 39 38 38 37 37 35 32 32 32 32 31 29 23 22 28 26 12 1 3 7 19 18 21 22 24 26 26 26
34 38 38 39 39 40 40 41 38 35 36 32 30 33 35 38 42 42 42 39 38 37 36 35 32 34 32 27 25 20 29 27 23 9 8 10 17 18 21 23 25 26 26
31 36 36 38 40 40 40 42 40 39 35 31 33 33 35 38 42 44 43 44 43 42 40 38 36 33 35 33 29 28 24 12 16 14 10 16 18 23 24 25 25 25 23
Wind_Direction
132 136 134 132 130 129 123 119 119 115 108 101 96 91 92 99 100 94 92 87 88 87 88 89 87 86 88 86 84 84 82 82 78 75 77 76 74 70 64 70 61 58 54
139 142 137 138 134 130 124 122 119 106 107 105 99 96 102 99 94 105 101 94 89 90 92 91 92 90 88 87 86 86 88 84 79 75 63 74 69 66 63 63 64 60 61
138 146 142 144 141 137 134 133 128 120 122 112 103 105 110 105 100 102 104 96 93 96 96 96 93 90 88 85 90 88 94 89 75 87 74 63 71 65 59 68 70 66 65
140 138 148 152 148 143 140 137 133 126 121 115 114 116 111 111 107 108 102 95 99 101 100 96 95 90 91 90 90 90 88 82 73 68 80 82 74 73 74 68 69 62 60
141 154 163 156 153 147 142 136 131 126 121 118 120 121 117 117 114 126 113 106 107 106 104 105 99 94 93 93 95 88 82 82 72 64 55 72 81 89 76 65 66 61 57
143 165 168 159 156 154 147 145 136 126 125 127 128 126 123 127 122 119 117 117 115 110 112 104 102 101 98 94 91 88 85 71 59 62 73 95 90 84 74 64 56 55 56
159 165 169 164 162 161 158 151 141 132 134 131 130 131 129 134 131 127 127 124 120 120 113 109 105 101 95 92 91 92 85 68 74 78 79 86 90 78 69 62 58 60 67
162 160 167 170 169 166 164 160 150 144 137 139 134 134 134 139 138 136 131 129 128 125 117 116 112 103 98 92 88 96 79 75 80 81 85 93 85 75 67 61 63 65 69
165 166 172 178 175 173 169 168 163 157 151 139 146 139 139 145 147 146 142 135 127 131 134 128 120 111 103 93 90 99 85 87 77 79 79 92 80 70 65 68 67 68 69
165 179 177 178 184 179 175 173 174 171 165 162 159 156 148 155 157 154 152 155 151 160 149 140 132 122 108 95 96 99 80 74 89 75 83 92 78 68 66 68 69 68 73
170 182 182 181 184 188 183 178 180 180 174 169 167 167 162 156 157 158 161 169 179 176 167 159 153 138 119 99 98 87 80 91 80 79 69 105 87 76 70 66 74 74 76
179 188 189 187 184 185 195 198 184 181 190 179 175 174 161 166 167 163 176 189 188 182 175 171 168 155 135 87 67 80 98 90 105 23 59 104 100 86 81 56 76 81 83
187 191 195 193 188 191 189 194 190 189 190 195 196 181 173 186 185 185 193 194 193 189 183 182 179 167 165 204 215 185 121 111 100 187 7 96 139 119 44 41 56 79 93
197 194 196 199 197 196 192 189 190 195 194 198 198 191 188 197 200 199 202 198 198 196 185 207 206 211 221 199 207 209 184 153 153 4 350 30 315 282 176 69 111 107 134
211 207 200 201 200 201 195 196 198 196 196 198 206 203 205 203 208 189 209 202 202 202 193 210 214 223 208 220 224 214 223 203 201 169 266 297 223 239 243 225 204 211 204
215 207 208 203 204 201 199 198 201 199 201 200 203 207 208 210 211 202 204 205 209 208 207 210 213 221 219 224 221 229 230 233 229 235 223 253 272 242 245 241 238 239 241
215 211 206 203 204 202 199 199 201 203 206 204 207 212 214 205 212 209 208 209 208 207 209 216 217 219 223 224 229 235 234 238 238 256 255 238 254 263 256 253 242 241 242
212 210 209 203 203 205 203 201 203 205 207 210 210 209 213 210 210 211 211 213 211 211 210 215 217 221 221 224 231 230 245 250 255 253 265 263 256 254 262 265 263 253 245
212 210 209 203 203 206 207 205 206 206 209 210 210 212 213 213 210 213 212 214 211 212 216 214 219 223 224 226 231 236 242 247 253 257 266 265 266 261 254 261 267 266 260
209 210 213 206 205 205 206 208 208 209 212 210 210 211 212 214 213 212 215 214 212 212 215 215 219 222 225 228 227 240 246 251 256 254 260 266 265 269 266 260 258 262 264
203 205 211 206 203 201 201 203 205 207 210 211 212 213 211 213 215 213 213 214 214 214 217 217 219 223 225 225 237 242 252 256 256 253 251 252 257 260 266 266 264 265 268
199 202 206 211 202 204 204 205 205 205 208 211 213 214 212 210 214 214 213 211 213 215 217 217 218 221 228 221 217 241 275 261 252 250 245 250 258 259 256 262 267 266 267
201 198 203 211 208 203 204 203 207 209 210 210 212 213 214 212 214 213 215 215 213 217 216 219 220 219 220 220 221 205 209 233 250 243 236 244 250 253 256 258 266 271 271
207 204 205 208 210 210 203 201 200 200 203 209 208 210 213 214 215 216 214 218 216 216 219 222 223 223 220 217 217 227 233 251 267 319 234 236 246 250 257 265 267 269 272
213 205 206 207 211 212 209 206 202 204 210 209 207 208 212 216 217 218 218 217 219 217 221 222 222 222 222 217 214 217 227 237 251 249 276 239 254 255 265 270 269 266 269
232 209 206 207 212 213 213 210 208 208 206 207 207 207 208 212 215 218 220 220 221 222 221 224 226 223 223 223 223 227 222 210 212 215 237 257 256 263 266 280 275 266 268